GEFSMA_500_meanwind_000.txt.gz
Wind_Speed
13 14 13 12 12 15 15 12 11 14 14 13 15 17 19 20 21 21 22 22 22 21 21 19 17 16 14 14 14 15 13 12 14 14 14 14 13 11 9 7 7 7 7
12 15 16 15 14 14 15 14 12 15 16 15 15 19 20 19 19 20 20 19 18 19 20 20 18 17 16 16 16 18 17 15 14 15 16 14 12 11 9 8 8 7 8
12 15 15 17 19 17 14 13 12 13 19 19 17 20 20 18 18 18 19 19 18 18 19 20 19 17 16 16 17 20 20 17 16 15 16 14 12 11 11 10 9 8 8
13 14 14 20 23 19 14 14 15 13 16 21 19 17 18 19 17 19 19 19 19 19 19 21 20 17 16 15 17 20 20 18 16 16 16 14 12 12 11 10 9 8 8
16 14 14 21 24 23 18 14 13 16 16 20 21 17 16 18 17 17 18 18 17 17 18 20 21 18 17 16 18 19 20 19 18 17 16 15 13 12 11 9 9 9 8
15 15 20 22 24 24 23 21 17 16 19 20 22 20 17 17 18 18 18 18 17 17 17 19 20 19 19 18 19 20 19 19 19 18 18 16 15 13 11 10 10 10 10
19 22 26 25 24 25 26 24 20 16 19 22 23 23 19 18 18 19 18 18 17 17 17 19 20 19 20 21 20 20 21 20 21 21 20 18 16 15 14 13 12 12 12
21 25 27 25 24 25 26 25 24 20 20 23 24 24 23 19 19 19 19 20 20 18 17 18 21 21 21 23 21 21 22 22 22 23 22 21 19 17 17 17 16 14 14
25 26 27 26 25 24 25 27 26 23 22 24 23 25 25 19 19 20 19 19 21 20 19 19 21 23 25 25 23 23 22 22 23 23 23 22 21 20 18 19 18 18 17
25 26 25 24 23 22 24 26 27 23 23 26 26 25 23 21 18 20 19 18 20 21 21 22 22 23 26 26 24 23 23 22 22 22 21 20 20 20 19 19 19 20 19
26 23 22 23 22 22 24 25 26 23 22 28 30 29 26 21 18 19 19 17 17 18 19 20 21 22 26 25 24 23 21 20 21 21 20 19 19 20 19 18 18 20 21
24 23 23 24 24 24 24 24 22 24 24 29 30 28 25 24 22 19 18 16 14 15 15 16 19 21 22 25 24 22 20 20 21 21 19 18 18 19 19 18 17 18 19
26 26 24 24 23 22 23 20 19 22 26 29 31 32 24 24 26 22 18 15 15 16 16 16 16 18 20 23 24 22 21 21 21 21 20 20 19 17 17 17 16 15 15
27 27 25 24 24 22 20 17 17 19 21 24 29 26 22 25 30 29 23 19 18 18 18 18 17 17 18 20 23 23 22 23 24 23 22 21 19 18 16 15 14 14 16
26 24 24 24 24 22 20 14 15 18 17 19 20 21 18 16 17 23 24 24 23 22 22 22 21 20 18 17 19 20 21 22 23 22 21 20 19 18 17 16 15 16 17
26 24 23 24 24 22 20 14 12 15 19 19 19 20 19 19 18 18 20 24 26 28 27 25 25 25 22 21 20 18 19 19 20 21 21 20 20 20 19 18 19 19 19
25 24 23 23 21 21 18 13 12 13 16 17 17 17 16 16 17 18 21 23 27 29 28 29 28 28 25 24 23 22 21 21 21 22 22 22 22 22 22 22 22 21 20
26 23 22 22 20 20 17 15 12 12 12 13 12 13 16 17 18 17 18 17 21 27 29 31 30 30 26 25 21 24 24 24 24 24 25 24 25 25 24 23 22 22 21
23 22 21 21 20 20 20 18 16 16 16 15 13 14 16 16 16 21 24 23 22 25 31 35 33 29 27 26 26 26 25 24 25 25 25 25 24 24 24 23 22 23 23
21 23 21 21 21 21 23 22 20 19 19 19 19 19 20 20 19 21 24 26 29 28 31 37 40 33 27 26 28 29 26 24 24 25 27 27 25 25 25 25 25 26 25
21 22 22 21 22 23 23 24 25 25 23 22 22 22 23 23 23 23 24 25 27 28 30 35 40 40 33 32 31 30 27 25 25 27 28 29 28 29 28 27 27 27 28
15 20 22 18 20 23 26 26 27 27 26 24 24 23 23 24 24 23 21 22 23 27 33 38 44 42 36 35 33 30 27 25 28 30 28 29 30 30 30 30 31 31 30
17 16 14 14 14 18 24 24 24 25 25 25 25 26 26 26 25 25 23 22 22 22 25 34 43 46 43 36 35 32 30 29 30 30 31 32 32 33 33 33 34 35 35
17 16 15 15 15 16 18 21 19 20 22 23 24 26 26 26 28 29 26 24 22 24 24 28 37 39 39 38 40 38 31 28 29 32 33 33 32 33 32 33 33 34 34
16 15 15 16 17 17 16 18 20 20 20 22 23 24 26 27 28 30 29 27 25 23 23 25 30 32 34 36 34 33 32 30 29 30 32 32 32 32 30 31 32 33 35
17 16 17 19 21 21 21 23 23 23 24 25 24 24 25 27 28 28 28 27 25 24 20 19 22 21 20 25 28 31 34 33 32 32 34 33 34 33 31 33 35 35 35

GEFSMA_500_meanwind_006.txt.gz
Wind_Speed
13 11 12 14 13 14 12 11 11 9 11 11 10 13 17 20 22 22 21 21 21 21 20 20 19 17 15 14 13 13 14 16 17 19 20 20 19 17 14 12 10 8 7
15 14 15 18 18 16 15 15 15 12 10 11 11 13 17 21 24 25 25 25 25 25 24 24 23 22 20 19 18 16 16 18 18 19 21 22 21 19 17 15 12 10 8
17 17 17 19 19 17 16 20 22 20 15 11 11 14 17 20 22 25 25 25 25 24 24 23 22 21 20 21 20 18 17 19 20 19 20 21 22 20 17 15 13 12 10
19 19 19 20 19 19 20 23 24 23 19 15 13 15 19 21 23 25 25 24 23 22 22 22 20 19 19 20 20 18 18 20 21 20 20 20 20 19 16 15 14 13 12
20 20 20 20 20 21 23 25 25 24 22 19 18 18 21 23 23 24 25 24 24 23 23 24 23 21 20 20 20 19 18 20 23 22 21 20 20 18 16 16 15 14 13
21 20 21 21 21 24 26 27 26 25 25 25 23 22 23 24 24 23 24 24 24 24 24 25 25 24 23 21 18 16 16 19 24 24 23 21 21 19 18 16 15 15 14
21 20 21 22 23 26 29 28 26 26 27 28 28 26 25 25 25 24 24 24 25 24 23 25 25 23 24 24 20 16 16 19 24 25 24 23 22 21 19 17 16 15 15
22 21 22 24 26 27 27 27 26 26 28 29 30 29 27 26 24 24 25 25 25 25 23 23 24 23 24 25 23 20 19 20 23 26 26 25 24 22 21 20 18 16 16
24 24 25 26 26 26 26 26 26 26 26 28 29 29 28 28 25 26 28 26 26 25 24 23 24 23 23 24 23 22 22 22 23 26 27 27 26 24 23 22 20 18 17
26 25 26 26 25 24 24 24 25 25 26 27 27 27 27 27 28 25 26 26 26 26 24 25 24 23 23 23 22 23 23 22 23 25 26 27 27 26 26 24 22 21 21
26 26 26 25 23 22 23 24 25 26 27 27 26 27 27 26 27 22 21 23 25 26 25 25 26 25 24 23 23 23 24 23 23 24 26 27 28 28 27 27 25 24 24
26 26 25 22 21 22 23 24 26 26 26 26 26 27 28 28 27 23 22 23 25 25 25 25 26 27 25 24 24 24 25 25 24 25 26 26 27 27 27 27 27 27 26
27 27 25 23 23 23 24 26 27 25 23 23 24 26 28 28 26 24 22 22 23 24 24 23 24 25 26 26 25 26 27 27 26 25 25 26 26 25 24 24 25 26 25
27 27 27 26 24 24 24 26 27 24 21 21 22 23 25 27 27 24 23 23 24 24 23 21 21 22 22 23 24 24 27 28 27 26 25 25 24 23 23 22 22 23 23
27 28 29 28 26 24 23 23 24 23 20 20 18 17 17 20 22 23 24 25 27 26 23 21 20 19 18 18 19 21 24 27 27 26 25 24 24 24 24 23 22 21 20
29 30 31 30 29 26 23 23 22 21 20 19 16 15 15 16 17 18 20 22 25 27 25 24 22 20 19 18 17 17 20 24 27 27 25 25 25 26 26 24 22 21 20
30 30 29 28 27 26 24 23 21 20 19 18 16 15 15 15 16 16 16 18 22 26 28 27 26 23 22 21 20 19 17 20 24 28 28 27 28 28 28 26 25 23 22
26 27 27 26 24 23 23 23 21 19 19 18 16 15 15 16 16 16 15 16 19 24 27 30 31 29 27 25 23 22 21 22 22 24 26 27 28 29 29 28 27 26 25
21 22 23 25 25 23 21 22 21 19 19 19 18 17 16 15 16 17 16 15 17 20 24 27 29 31 30 28 27 26 26 25 25 24 24 25 27 28 28 27 26 26 26
18 20 21 23 25 24 22 22 23 21 20 21 22 21 20 17 16 17 18 18 18 19 22 23 25 28 30 30 29 29 30 30 29 27 27 28 28 28 28 27 27 27 27
17 19 20 20 21 24 24 24 25 25 23 23 24 24 24 22 21 20 20 20 20 20 22 24 26 26 27 29 30 32 32 32 32 31 31 30 29 29 30 30 30 29 29
16 17 17 18 20 23 25 26 26 26 26 26 26 26 26 26 24 24 24 24 23 23 24 25 27 28 29 31 33 35 36 34 34 35 34 31 30 31 33 32 32 32 32
17 17 17 16 17 18 20 22 23 24 26 27 27 26 26 26 26 26 25 25 25 25 25 24 25 27 28 30 32 35 38 39 38 36 34 33 32 34 34 33 33 33 34
18 19 19 17 16 16 16 16 17 19 20 22 24 25 25 26 26 26 25 25 26 26 25 25 25 26 27 26 28 32 36 40 41 39 36 34 35 35 34 33 33 33 33
18 18 18 18 17 17 17 18 19 21 22 21 22 24 25 26 26 25 26 26 25 25 25 25 25 26 26 26 26 28 32 37 41 43 39 36 37 37 35 35 35 35 35
16 16 16 16 16 16 17 18 20 21 23 22 23 25 25 25 24 22 23 23 23 23 23 24 24 25 25 25 25 25 27 33 40 44 44 41 41 41 39 38 37 36 37

GEFSMA_500_meanwind_012.txt.gz
Wind_Speed
11 10 10 9 8 8 8 9 8 6 5 6 6 7 10 14 17 19 19 20 20 19 19 18 18 18 17 16 15 15 14 14 14 16 18 21 21 21 20 18 16 14 12
13 12 12 11 11 12 13 13 13 11 9 8 9 10 11 15 18 21 23 24 24 23 23 23 23 22 21 21 20 19 18 17 16 17 17 19 21 22 21 20 18 15 13
15 14 14 13 14 15 17 17 17 16 14 13 13 12 13 15 18 21 24 26 27 27 28 28 27 27 26 25 24 24 22 21 19 18 19 18 20 22 23 22 20 18 16
18 17 17 17 18 19 20 19 19 18 18 18 17 16 16 17 19 22 24 27 29 30 30 30 30 29 29 27 26 25 25 24 23 21 21 21 19 21 24 25 23 20 18
20 19 19 20 21 21 21 20 19 19 20 21 21 20 19 20 22 24 26 27 30 31 31 30 30 29 28 27 25 24 24 24 24 23 22 22 21 21 22 26 25 21 19
24 22 21 22 22 22 22 21 20 21 22 23 23 23 22 23 25 25 26 27 28 29 30 30 29 28 27 27 26 23 22 23 24 24 24 23 22 21 20 23 24 21 19
26 24 22 22 23 23 22 22 22 23 24 24 24 24 25 26 26 26 25 26 26 27 28 28 28 28 27 27 27 26 23 22 22 24 25 25 24 22 21 20 19 18 17
29 25 24 23 22 22 22 22 23 24 23 23 24 26 26 27 27 26 25 25 26 26 27 27 27 27 27 27 27 27 25 23 22 22 24 24 25 24 23 22 21 19 18
31 27 25 23 22 22 23 24 24 24 23 23 24 25 26 27 27 25 25 25 25 25 26 26 26 27 27 27 27 26 26 25 24 23 22 23 25 25 24 24 23 21 20
32 29 26 24 23 23 24 25 24 24 24 25 25 25 26 27 27 27 25 24 24 25 26 27 28 27 27 27 27 26 26 27 27 26 24 24 25 26 26 25 24 23 22
33 30 26 24 24 24 25 25 25 24 25 26 26 26 25 26 26 26 25 24 23 23 24 25 28 28 26 26 26 26 27 28 29 28 27 26 26 27 28 27 26 26 25
33 30 26 24 24 24 25 25 25 25 26 26 27 26 25 25 25 24 23 23 23 22 21 21 23 24 25 25 26 26 27 29 29 29 28 28 28 28 28 28 28 28 27
33 30 26 24 24 24 24 24 25 25 25 26 26 26 25 24 24 24 23 24 23 22 20 20 21 23 24 24 25 26 26 27 29 29 29 29 29 28 28 28 28 28 28
31 26 23 23 24 24 24 25 26 26 25 25 24 24 24 24 24 23 23 23 23 21 20 20 22 23 24 24 24 27 28 28 28 29 29 30 29 28 27 28 28 28 27
26 21 20 22 25 25 26 26 26 26 25 24 24 23 23 23 23 22 21 21 22 22 21 20 21 23 24 23 23 26 28 29 30 30 31 31 32 30 28 27 27 26 26
21 19 21 24 26 26 26 26 25 25 25 24 23 22 22 22 22 20 19 18 20 22 23 23 23 24 24 23 22 24 26 28 29 29 30 31 32 32 30 28 26 26 25
16 19 22 24 25 25 25 24 23 23 23 24 23 21 21 21 21 19 18 18 19 21 23 25 25 26 25 24 22 23 23 23 24 24 25 27 29 30 30 28 27 26 25
13 17 20 22 22 23 23 22 22 22 22 23 23 22 21 21 21 19 18 18 19 20 22 24 26 27 26 25 24 23 21 20 20 20 20 22 25 28 29 28 28 28 27
12 15 17 19 21 20 21 21 22 22 23 24 24 23 22 21 21 20 19 19 20 20 21 22 24 26 27 28 27 25 23 22 22 21 21 21 22 25 27 29 29 30 30
13 16 19 20 20 20 20 21 22 23 24 25 26 24 23 23 23 22 21 20 20 21 20 20 22 25 26 28 29 29 28 27 26 26 25 25 24 24 25 27 29 30 30
15 17 19 19 20 20 19 19 20 22 24 26 26 26 25 25 25 24 23 22 21 21 21 21 22 23 25 27 29 30 30 30 30 30 30 29 28 27 27 27 28 29 30
15 17 19 20 21 21 20 20 20 21 22 25 27 27 27 26 26 26 25 24 23 22 22 22 22 22 23 25 27 27 28 29 30 31 32 32 32 31 31 30 29 30 30
17 19 20 21 22 23 22 22 21 21 21 22 25 26 27 28 27 27 26 26 26 25 25 25 25 24 23 24 24 25 26 26 28 30 32 33 33 34 34 34 33 32 33
21 22 23 23 23 23 23 21 20 20 21 21 21 22 23 25 27 28 27 27 27 27 27 26 26 27 26 27 27 27 27 27 28 29 31 32 33 35 36 37 36 36 36
20 21 22 23 23 22 21 21 20 20 21 21 21 22 21 21 21 23 25 26 26 27 27 27 26 26 27 27 27 27 27 27 28 29 29 30 32 34 36 37 39 39 39
20 21 21 22 22 21 21 21 21 22 22 22 22 22 22 22 21 22 23 24 24 24 25 25 25 25 25 25 26 27 28 28 29 29 30 30 30 31 33 35 39 41 42

GEFSMA_500_meanwind_018.txt.gz
Wind_Speed
15 15 15 16 15 15 14 13 12 12 11 11 11 10 11 11 12 12 14 15 17 17 18 18 18 18 17 15 14 13 12 11 11 11 11 12 15 17 17 17 16 15 13
19 19 18 18 18 18 17 16 15 15 14 14 13 13 13 13 14 15 16 17 18 19 20 21 22 22 22 21 20 18 17 15 15 14 13 14 14 15 19 20 19 18 16
24 23 21 20 20 19 18 18 18 18 17 16 15 15 15 15 16 16 17 18 19 20 21 22 23 25 26 26 25 24 22 21 19 18 17 16 16 16 16 20 22 21 20
25 25 23 22 21 21 21 21 20 20 18 17 16 16 17 17 18 19 19 20 21 22 23 23 24 25 26 28 29 28 27 25 23 22 21 20 18 17 17 17 20 23 23
24 24 24 25 24 24 24 24 23 21 20 19 18 18 19 20 21 21 22 22 23 23 25 26 26 25 26 27 28 29 29 28 26 24 23 22 21 20 19 19 19 21 24
25 24 25 27 27 27 27 26 24 22 21 20 19 19 21 22 22 22 23 24 24 24 25 26 27 26 25 26 26 27 28 28 27 25 23 23 22 21 20 20 20 20 23
28 27 28 30 30 30 29 27 25 24 22 20 20 20 21 22 23 22 23 25 25 24 25 25 26 26 25 24 25 25 26 26 26 25 23 22 22 22 21 20 20 20 21
30 30 31 31 31 30 30 28 26 24 23 21 20 21 21 22 23 22 22 24 24 23 25 24 25 25 24 24 23 24 24 25 25 25 23 22 21 21 20 20 20 20 20
31 31 31 31 31 30 29 29 27 26 23 22 21 21 23 24 24 23 23 24 24 23 24 25 25 24 23 22 23 23 24 24 24 24 24 22 21 20 19 19 20 20 20
33 32 32 32 31 30 30 30 29 27 25 23 22 23 24 24 25 24 25 24 24 24 24 24 25 24 22 21 23 24 24 24 24 24 24 24 23 21 19 19 20 21 21
37 36 37 36 34 32 31 31 30 29 27 25 24 24 24 25 25 24 25 25 24 24 23 23 24 24 22 21 23 24 24 25 24 24 24 24 25 23 21 19 20 22 22
39 40 40 38 36 34 34 33 32 30 28 25 24 24 25 26 26 25 25 26 25 24 23 23 24 24 23 21 22 24 24 24 24 25 24 25 25 25 24 22 22 22 24
40 39 39 37 36 35 34 34 34 31 28 25 25 25 26 27 27 27 26 26 25 24 22 22 24 22 22 20 19 22 23 24 25 25 24 25 25 26 26 25 24 25 25
40 40 39 37 36 35 35 35 34 30 28 25 25 26 27 28 28 28 27 26 25 24 23 22 22 22 21 19 19 20 21 22 23 24 24 23 24 24 24 25 26 27 27
39 38 38 37 37 35 36 35 32 28 26 25 25 26 28 28 28 28 27 26 25 24 24 23 21 20 20 19 19 20 20 22 23 23 23 23 22 23 23 24 25 27 28
37 38 38 37 35 35 35 32 28 25 24 24 26 27 28 29 29 29 28 27 25 23 23 22 20 19 20 20 19 19 20 21 22 23 23 23 23 23 24 25 26 27 28
35 34 31 30 27 27 26 24 22 21 22 24 26 27 28 29 29 29 28 27 25 23 22 21 20 19 20 20 21 20 20 21 21 21 21 22 23 23 24 26 27 29 30
24 21 19 19 19 18 18 19 19 20 22 24 25 26 27 27 28 28 27 27 26 24 22 21 20 19 20 20 20 21 20 21 20 19 19 19 19 20 21 23 24 26 27
11 9 9 10 12 13 15 17 19 21 23 24 25 26 27 27 27 27 27 27 27 25 23 21 21 20 19 20 20 21 21 21 21 19 18 18 18 18 18 19 20 21 24
5 6 8 11 13 14 16 18 20 21 22 23 24 25 26 26 27 27 27 27 27 26 24 22 21 21 20 19 19 19 20 21 22 21 20 19 19 18 19 19 20 21 22
8 10 12 14 15 16 17 18 19 20 22 22 23 24 24 25 26 26 26 27 26 26 24 23 22 21 20 19 17 18 18 19 20 22 22 22 22 22 23 23 24 24 24
12 13 15 16 17 18 19 20 21 21 22 22 23 23 23 23 24 24 25 25 26 26 25 24 23 22 20 19 18 15 16 17 19 22 23 24 25 25 26 26 26 27 27
15 16 18 19 20 20 20 21 22 22 22 22 22 22 22 22 22 22 22 23 24 25 25 25 24 23 21 20 18 16 15 15 16 18 20 22 24 25 27 28 28 29 30
15 17 18 19 20 21 21 22 22 21 21 21 20 20 20 20 20 20 19 19 20 22 24 24 23 23 22 21 18 17 16 15 15 15 17 19 20 21 23 25 26 27 29
16 17 18 19 20 21 21 21 21 20 20 20 19 18 18 18 18 18 17 16 15 17 18 21 22 22 21 21 20 19 18 17 17 17 17 18 20 21 23 24 25 27 28
17 17 18 19 19 19 20 20 19 19 19 19 19 18 18 18 17 17 16 15 14 14 14 16 18 19 19 18 18 18 18 18 18 19 19 20 22 23 24 25 26 27 29

GEFSMA_500_meanwind_024.txt.gz
Wind_Speed
20 20 20 20 19 19 19 19 19 18 15 13 13 13 13 13 12 12 11 10 10 11 11 12 12 12 13 13 13 13 13 13 12 12 11 11 11 13 15 17 17 17 16
20 22 22 22 23 22 22 21 21 20 19 16 16 16 16 16 15 14 13 12 12 12 13 13 13 14 15 16 17 17 17 17 16 16 15 14 14 14 15 16 18 19 19
20 22 23 23 25 25 24 23 22 21 20 19 18 19 19 19 18 16 15 14 14 15 15 15 16 16 17 18 19 20 20 21 21 20 19 18 17 16 16 17 18 20 21
21 22 23 24 25 25 25 23 23 23 23 22 21 21 21 20 20 18 17 17 16 17 17 17 18 19 19 20 20 21 22 23 24 24 24 22 21 20 19 18 19 19 20
24 24 24 24 25 25 25 24 24 24 25 25 24 23 22 22 21 21 20 19 18 18 18 18 19 20 21 21 21 22 23 24 25 26 26 25 24 23 22 21 20 20 19
27 27 26 26 26 25 25 25 25 25 27 27 26 25 24 23 23 22 22 21 20 20 20 20 20 21 22 22 22 22 23 25 26 26 27 27 26 25 24 23 22 21 21
30 30 29 28 27 27 26 25 25 26 27 28 27 27 26 25 25 24 23 22 21 21 21 21 21 22 22 22 22 22 23 24 25 26 26 26 26 26 25 23 23 23 23
32 32 31 29 28 28 28 26 25 25 25 26 27 28 28 27 27 26 26 24 21 22 22 23 23 22 22 22 22 22 22 23 24 25 26 26 26 26 25 23 23 24 24
34 31 31 29 28 27 26 25 24 23 24 25 26 28 29 29 28 28 27 26 23 22 23 23 22 22 23 23 23 22 22 22 23 24 25 25 25 26 25 23 23 23 24
33 30 29 28 27 26 25 24 24 23 23 25 27 29 30 30 30 29 28 27 25 24 23 22 21 22 23 24 23 22 22 22 22 23 24 25 25 26 26 24 23 23 23
32 31 30 30 28 26 25 24 23 23 24 24 26 29 31 31 31 31 30 28 26 25 24 22 20 21 22 24 23 23 22 21 21 23 24 25 25 26 27 25 24 23 23
32 32 32 31 29 27 26 25 24 23 24 25 26 29 31 32 33 32 30 29 26 25 25 24 22 20 20 22 23 22 22 21 22 23 24 25 25 26 27 27 26 25 24
33 34 33 31 30 28 27 25 25 25 25 26 27 29 31 33 33 33 31 29 27 26 25 25 24 20 20 21 22 22 21 21 21 22 23 24 25 26 27 27 27 27 26
35 35 33 32 31 29 27 26 26 26 27 29 29 29 31 33 33 32 31 29 27 26 25 25 24 22 20 20 21 21 20 20 20 20 21 23 24 25 27 28 28 28 28
37 35 33 32 32 30 29 28 28 29 30 30 30 30 31 33 32 32 31 29 27 26 25 24 24 22 20 20 20 20 20 19 19 19 20 22 24 25 26 28 29 29 29
35 34 33 33 32 32 31 31 31 31 31 31 31 31 32 32 32 31 30 29 27 26 25 24 23 22 21 20 19 19 19 19 19 19 20 21 23 25 26 27 28 29 29
31 30 29 30 30 30 30 31 31 31 32 32 31 31 32 32 31 30 29 27 27 25 24 22 21 21 21 20 19 19 19 19 20 20 20 21 23 25 26 27 28 28 29
24 24 24 24 25 25 26 26 27 28 28 27 27 28 28 29 29 28 26 25 25 23 22 21 20 20 21 21 19 19 19 20 21 21 21 22 23 23 25 26 28 29 29
15 16 16 16 16 17 17 17 18 19 21 21 22 23 24 24 24 24 24 24 23 22 21 20 19 20 21 21 20 19 19 20 21 22 23 23 23 23 24 24 25 26 27
7 8 9 10 11 13 13 14 14 15 15 16 17 18 19 20 20 21 22 21 21 20 20 20 20 20 21 21 21 20 20 20 21 22 23 24 25 24 25 24 24 24 24
7 8 9 10 11 13 14 15 15 16 16 17 17 18 18 19 19 20 20 20 20 20 20 20 20 20 21 21 21 21 20 20 20 21 22 23 25 25 26 26 25 24 24
9 10 11 12 13 15 16 17 18 19 19 20 20 20 19 19 20 20 20 20 20 20 21 20 20 20 20 21 21 21 20 19 19 20 21 21 21 23 24 26 26 26 27
12 13 14 15 16 17 18 19 20 20 20 20 21 21 21 20 20 20 20 19 19 20 20 20 21 21 21 21 21 21 20 18 17 17 17 17 19 21 23 25 27 28 29
15 15 16 17 18 20 20 21 21 21 21 21 21 21 21 21 21 20 20 19 18 18 18 19 19 20 20 20 20 21 20 19 17 16 16 17 17 18 20 22 25 27 29
16 16 17 17 18 19 20 20 20 20 20 20 20 20 21 21 20 20 19 18 17 16 16 16 17 18 19 19 19 20 20 19 18 17 17 17 18 18 20 21 23 25 27
16 16 16 15 15 16 15 16 16 16 17 17 18 19 19 20 20 20 19 17 16 15 14 14 14 14 15 16 17 18 19 18 18 18 19 19 20 21 22 23 24 26 28

GEFSMA_500_meanwind_030.txt.gz
Wind_Speed
15 16 16 16 16 17 16 16 15 14 13 13 13 13 11 9 8 7 7 7 7 7 6 6 6 6 7 8 9 9 10 10 11 11 11 12 12 11 12 13 14 15 16
17 18 18 18 18 19 19 19 18 17 16 16 15 15 14 13 11 10 10 9 9 8 8 7 7 7 7 8 10 11 12 12 13 14 14 15 15 15 15 15 15 16 18
20 20 20 20 21 21 22 21 20 19 19 19 18 17 16 15 14 13 12 11 11 10 10 9 9 8 9 9 10 11 13 14 15 16 17 17 18 18 18 18 17 18 19
23 23 23 23 23 23 24 24 23 22 21 21 20 19 18 18 17 15 15 14 13 13 12 11 11 10 10 10 11 12 13 15 16 17 18 19 20 21 21 21 20 20 20
26 26 27 26 26 27 27 26 26 24 23 22 22 21 20 20 19 18 17 16 16 15 14 13 13 12 12 12 12 13 14 15 16 17 19 20 21 22 23 23 24 23 23
27 28 29 30 30 30 29 29 28 28 26 24 24 23 23 23 22 21 20 19 18 17 16 15 15 14 14 13 14 14 15 15 16 17 18 19 21 22 23 25 25 26 26
30 31 32 32 32 32 32 31 30 30 29 28 26 25 25 25 25 25 23 22 21 20 19 17 17 16 16 16 16 16 16 16 17 17 18 19 20 21 23 25 26 27 27
35 34 33 32 32 33 33 33 31 31 31 30 29 28 27 26 26 26 25 24 23 22 21 19 18 18 18 18 18 17 17 17 18 18 18 19 19 20 22 24 26 27 28
39 38 36 34 34 34 33 31 31 31 31 31 31 29 28 28 27 26 26 26 25 24 23 22 21 20 20 20 19 19 19 19 19 19 19 19 19 20 21 23 24 26 27
41 40 39 37 35 33 31 30 29 30 32 33 33 31 31 29 27 26 26 26 26 26 25 24 23 23 22 21 20 20 20 20 20 20 20 20 20 20 21 22 23 25 26
42 41 40 37 35 32 31 30 29 29 31 34 33 32 30 30 29 28 28 27 27 27 27 26 26 25 24 23 22 21 21 21 21 21 21 21 21 21 21 22 23 24 25
39 39 38 35 34 31 29 28 28 28 29 32 32 32 32 30 29 29 29 29 28 28 28 28 29 28 27 26 24 23 23 22 22 22 22 22 22 22 22 23 23 24 25
36 36 35 34 32 31 30 28 29 29 30 30 31 31 31 31 31 31 31 31 31 30 30 30 31 30 29 28 27 25 24 24 23 22 22 22 22 22 22 23 24 24 25
33 33 33 33 32 31 31 30 29 30 30 30 30 31 32 32 32 31 32 33 33 33 33 33 33 32 31 29 28 27 26 25 24 23 23 23 22 22 22 22 23 24 25
32 32 32 32 32 32 32 32 31 32 32 32 32 32 32 33 33 33 32 33 34 34 35 34 34 33 32 30 29 28 27 26 24 24 23 23 22 21 20 21 22 23 25
30 31 31 32 33 33 34 34 34 33 33 33 33 33 34 34 34 34 33 34 34 35 35 35 34 34 32 30 30 28 27 26 25 24 23 23 22 21 20 21 22 23 24
26 27 28 30 31 32 33 33 33 34 34 35 35 35 34 34 34 35 34 35 34 34 35 36 35 34 32 29 28 27 27 26 25 24 23 22 22 21 21 21 22 22 23
19 22 23 25 26 28 29 29 30 31 32 33 34 34 34 33 33 34 33 33 33 35 35 35 34 32 31 29 27 27 26 26 24 23 23 22 22 22 22 22 22 23 23
12 14 15 17 19 21 22 23 25 26 27 29 31 31 30 31 31 30 30 30 30 30 31 30 30 28 28 27 26 26 25 24 23 22 22 21 21 22 22 22 22 23 23
5 7 10 12 13 15 16 18 20 21 22 23 24 24 25 25 25 25 25 25 25 26 26 26 25 25 25 24 24 24 23 23 22 22 21 21 21 21 22 22 23 23 24
7 7 8 10 10 12 13 15 16 17 17 18 19 20 19 19 19 20 20 20 21 20 20 20 20 21 21 22 22 22 22 22 22 22 21 20 20 20 21 22 22 23 24
9 10 10 11 11 12 13 14 15 16 17 17 17 16 16 16 15 15 16 16 15 15 16 17 17 18 19 20 20 21 21 21 22 21 21 21 20 20 20 21 22 22 23
11 11 12 12 12 14 14 15 16 16 17 18 18 18 17 16 15 15 14 13 13 14 14 14 15 16 17 19 20 20 20 20 21 21 21 20 20 19 19 19 19 21 22
14 14 14 14 13 14 14 15 15 16 17 19 19 19 18 17 16 15 15 14 14 14 14 14 15 15 16 17 18 18 19 20 20 20 20 19 19 18 19 19 19 20 22
17 17 16 16 15 14 14 13 14 14 15 16 17 18 18 18 17 16 15 15 14 14 14 13 13 13 14 15 15 16 17 17 18 18 18 18 18 18 18 19 19 21 22
21 20 19 18 17 15 14 13 12 12 12 14 15 16 17 17 17 16 15 14 13 12 12 12 12 12 12 12 12 14 14 15 15 15 15 15 15 16 17 17 19 20 21